Location: Carrières
(48.9495°N, 2.0407°E)
Time: 00:27:27
(UTC+00:00)

Timation 2 Rocket - Pass Details

Date: 28 January 2023
Orbit: 905 x 1076 km, 70.0° (Epoch: 01 April)

Event Time Altitude Azimuth Distance (km) Brightness Sun altitude
Rises 18:50:12 0° 327° (NNW) 3,588 7.4 -20.9°
Reaches altitude 10° 18:52:42 10° 325° (NW) 2,659 6.7 -21.3°
Maximum altitude 18:58:46 63° 246° (WSW) 1,073 4.4 -22.3°
Drops below altitude 10° 19:05:04 10° 167° (SSE) 2,756 6.2 -23.4°
Sets 19:07:43 0° 164° (SSE) 3,728 6.9 -23.8°
